Find Starlink 4420

NORAD ID: 53654 Int'l Des: 2022-105 Owner: SPXS Country: US Constellation: starlink operational
LEOCIRCULARRETROGRADESSO

現在のビュー

3D地球を読み込み中...

About Starlink 4420

Starlink 4420 (NORAD 53654) is a starlink constellation satellite (v1.5) launched Aug 31, 2022 by SPXS of US. It operates in LEO, CIRCULAR, RETROGRADE, SSO orbit with a mass of 300.00 kg.

次回通過

Passes for default location (London). Set your location on the main map for personalized predictions.

高度履歴

Loading altitude history...

軌道要素

1 53654U 22105G 26265.56909408 -.00002381 00000-0 -71412-4 0 9990
2 53654 97.2840 142.2720 0002068 88.9514 271.1965 15.33452789223054
Epoch: Sep 22, 2026 • Age: 10 hours

現在のステータス

高度 477.1 km
遠地点 / 近地点 N/A
速度 7.63 km/s
衛星直下点 76.25°N, 0.33°W
打ち上げ日 Aug 31, 2022
運用期間 4 years
タイプ internet

技術仕様

分類 Payload
質量 300.00 kg
乾燥質量 290.00 kg
長さ 0.20 m
スパン 9.00 m
形状 ? Box + pan
製造者 SPXS
バスタイプ Starlink
フェーズステータス In Orbit
所有者/国 SPXS/US

Most Searched